Location: Cerroniocc
(13.7547°S, 72.0222°W)
Time: 22:37:33
(UTC+00:00)

GPS 2-14 Rocket1 - Pass Details

Date: 05 July 2020
Orbit: 476 x 541 km, 20.7° (Epoch: 10 August)

Event Time Altitude Azimuth Distance (km) Brightness Sun altitude
Rises 23:19:05 0° 249° (WSW) 2,517 7.0 -11.2°
Reaches altitude 10° 23:21:29 10° 237° (WSW) 1,639 5.8 -11.7°
Maximum altitude 23:24:49 29° 175° (S) 895 3.7 -12.5°
Enters shadow 23:26:38 20° 130° (SE) 1,168 3.9 -12.9°
